Hereford, TX

10:20 PM CDT on March 22, 2017 (GMT -0500)
Hereford Municipal

Weather History for KHRX - January, 2013

Change the Weather History Date:

Thursday, January 3, 2013

  Actual Average (KAMA) Record (KAMA)
Temperature  
Mean Temperature 24 °F -  
Max Temperature 37 °F 47 °F 76 °F (1997)
Min Temperature 12 °F 23 °F -8 °F (1959)
Degree Days  
Heating Degree Days 40    
Moisture  
Dew Point 15 °F    
Average Humidity 70    
Maximum Humidity 86    
Minimum Humidity 36    
Precipitation  
Precipitation 0.00 in - - ()
Sea Level Pressure  
Sea Level Pressure 30.36 in    
Wind  
Wind Speed - (North)    
Max Wind Speed -    
Max Gust Speed -    
Visibility 10 miles    
Events      
Averages and records for this station are not official NWS values.
T = Trace of Precipitation, MM = Missing Value Source: NWS Daily Summary

Daily Weather History Graph

Daily Weather History Graph

Search for Another Location

Airport or City:

Trip Planner

Search our weather history database for the weather conditions in past years. The results will help you decide how hot, cold, wet, or windy it might be!

Date:

Astronomy

Jan. 03, 2013 Rise Set
Actual Time 7:57 AM CST 5:50 PM CST
Civil Twilight 7:29 AM CST 6:18 PM CST
Nautical Twilight 6:57 AM CST 6:50 PM CST
Astronomical Twilight 6:27 AM CST 7:20 PM CST
Moon No Moon Rise 11:25 AM CST (1/3)
Length of Visible Light 10h 49m
Length of Day
9h 53m
Waning Gibbous, 65% of the Moon is Illuminated
Jan 3
Waning Gibbous
Jan 4
Last Quarter
Jan 11
New
Jan 18
First Quarter
Jan 26
Full

Hourly Weather History & Observations

Time (CST) Temp. Dew Point Humidity Pressure Visibility Wind Dir Wind Speed Gust Speed Precip Events Conditions
12:15 AM 17.6 °F 14.0 °F 86% 30.32 in 10.0 mi North - - N/A   Clear
12:35 AM 17.6 °F 14.0 °F 86% 30.32 in 10.0 mi North - - N/A   Clear
12:55 AM 17.6 °F 14.0 °F 86% 30.32 in 10.0 mi North - - N/A   Clear
1:15 AM 17.6 °F 14.0 °F 86% 30.31 in 10.0 mi North - - N/A   Clear
1:35 AM 17.6 °F 14.0 °F 86% 30.32 in 10.0 mi North - - N/A   Clear
1:55 AM 17.6 °F 12.2 °F 79% 30.32 in 10.0 mi North - - N/A   Clear
2:15 AM 15.8 °F 12.2 °F 86% 30.32 in 10.0 mi North - - N/A   Clear
2:35 AM 17.6 °F 14.0 °F 86% 30.33 in 10.0 mi North - - N/A   Clear
2:55 AM 15.8 °F 12.2 °F 86% 30.33 in 10.0 mi North - - N/A   Clear
3:15 AM 15.8 °F 12.2 °F 86% 30.34 in 10.0 mi North - - N/A   Clear
3:35 AM 15.8 °F 12.2 °F 86% 30.35 in 10.0 mi North - - N/A   Clear
3:55 AM 15.8 °F 12.2 °F 86% 30.35 in 10.0 mi North - - N/A   Clear
4:15 AM 14.0 °F 10.4 °F 86% 30.35 in 10.0 mi North - - N/A   Clear
4:35 AM 15.8 °F 12.2 °F 86% 30.35 in 10.0 mi North - - N/A   Clear
4:55 AM 15.8 °F 12.2 °F 86% 30.36 in 10.0 mi North - - N/A   Clear
5:15 AM 15.8 °F 12.2 °F 86% 30.35 in 10.0 mi North - - N/A   Clear
5:35 AM 14.0 °F 10.4 °F 86% 30.35 in 10.0 mi North - - N/A   Clear
5:55 AM 14.0 °F 10.4 °F 86% 30.35 in 10.0 mi North - - N/A   Clear
6:15 AM 14.0 °F 10.4 °F 86% 30.36 in 10.0 mi North - - N/A   Clear
6:35 AM 14.0 °F 10.4 °F 86% 30.36 in 10.0 mi North - - N/A   Clear
6:55 AM 14.0 °F 10.4 °F 86% 30.37 in 10.0 mi North - - N/A   Clear
7:15 AM 12.2 °F 8.6 °F 85% 30.37 in 10.0 mi North - - N/A   Clear
7:35 AM 12.2 °F 8.6 °F 85% 30.38 in 10.0 mi North - - N/A   Clear
7:55 AM 12.2 °F 8.6 °F 85% 30.39 in 10.0 mi North - - N/A   Clear
8:15 AM 14.0 °F 10.4 °F 86% 30.40 in 10.0 mi North - - N/A   Clear
8:35 AM 14.0 °F 10.4 °F 86% 30.40 in 10.0 mi North - - N/A   Clear
8:55 AM 17.6 °F 12.2 °F 79% 30.40 in 10.0 mi North - - N/A   Clear
9:15 AM 19.4 °F 14.0 °F 80% 30.41 in 10.0 mi North - - N/A   Clear
9:35 AM 21.2 °F 17.6 °F 86% 30.41 in 10.0 mi North - - N/A   Clear
9:55 AM 23.0 °F 19.4 °F 86% 30.42 in 10.0 mi North - - N/A   Clear
10:15 AM 26.6 °F 19.4 °F 74% 30.42 in 10.0 mi North - - N/A   Clear
10:35 AM 28.4 °F 21.2 °F 74% 30.42 in 10.0 mi North - - N/A   Clear
10:55 AM 30.2 °F 21.2 °F 69% 30.42 in 10.0 mi North - - N/A   Clear
11:15 AM 32.0 °F 23.0 °F 69% 30.42 in 10.0 mi North - - N/A   Clear
11:35 AM 32.0 °F 21.2 °F 64% 30.42 in 10.0 mi North - - N/A   Clear
11:55 AM 33.8 °F 19.4 °F 56% 30.41 in 10.0 mi North - - N/A   Clear
12:15 PM 33.8 °F 21.2 °F 60% 30.40 in 10.0 mi North - - N/A   Clear
12:35 PM 33.8 °F 17.6 °F 52% 30.38 in 10.0 mi North - - N/A   Clear
12:55 PM 33.8 °F 17.6 °F 52% 30.38 in 10.0 mi North - - N/A   Clear
1:15 PM 33.8 °F 17.6 °F 52% 30.37 in 10.0 mi North - - N/A   Clear
1:35 PM 35.6 °F 15.8 °F 44% 30.36 in 10.0 mi North - - N/A   Clear
1:55 PM 35.6 °F 12.2 °F 38% 30.36 in 10.0 mi North - - N/A   Clear
2:15 PM 35.6 °F 12.2 °F 38% 30.35 in 10.0 mi North - - N/A   Clear
2:35 PM 37.4 °F 14.0 °F 38% 30.35 in 10.0 mi North - - N/A   Clear
2:55 PM 37.4 °F 14.0 °F 38% 30.35 in 10.0 mi North - - N/A   Clear
3:15 PM 37.4 °F 14.0 °F 38% 30.34 in 10.0 mi North - - N/A   Clear
3:55 PM 37.4 °F 12.2 °F 36% 30.34 in 10.0 mi North - - N/A   Clear
4:15 PM 37.4 °F 12.2 °F 36% 30.34 in 10.0 mi North - - N/A   Clear
4:35 PM 37.4 °F 12.2 °F 36% 30.33 in 10.0 mi North - - N/A   Clear
4:55 PM 37.4 °F 12.2 °F 36% 30.33 in 10.0 mi North - - N/A   Clear
5:15 PM 35.6 °F 12.2 °F 38% 30.33 in 10.0 mi North - - N/A   Clear
5:35 PM 35.6 °F 12.2 °F 38% 30.33 in 10.0 mi North - - N/A   Clear
5:55 PM 32.0 °F 17.6 °F 55% 30.33 in 10.0 mi North - - N/A   Clear
6:15 PM 30.2 °F 19.4 °F 64% 30.33 in 10.0 mi North - - N/A   Clear
6:35 PM 32.0 °F 19.4 °F 60% 30.34 in 10.0 mi North - - N/A   Clear
6:55 PM 30.2 °F 19.4 °F 64% 30.33 in 10.0 mi North - - N/A   Clear
7:15 PM 28.4 °F 19.4 °F 69% 30.33 in 10.0 mi North - - N/A   Clear
7:35 PM 28.4 °F 19.4 °F 69% 30.35 in 10.0 mi North - - N/A   Clear
7:55 PM 28.4 °F 19.4 °F 69% 30.35 in 10.0 mi North - - N/A   Clear
8:15 PM 26.6 °F 19.4 °F 74% 30.36 in 10.0 mi North - - N/A   Clear
8:35 PM 26.6 °F 19.4 °F 74% 30.36 in 10.0 mi North - - N/A   Clear
8:55 PM 26.6 °F 19.4 °F 74% 30.36 in 10.0 mi North - - N/A   Clear
9:15 PM 26.6 °F 19.4 °F 74% 30.36 in 10.0 mi North - - N/A   Clear
9:35 PM 26.6 °F 19.4 °F 74% 30.36 in 10.0 mi North - - N/A   Clear
9:55 PM 26.6 °F 19.4 °F 74% 30.36 in 10.0 mi North - - N/A   Clear
10:15 PM 26.6 °F 19.4 °F 74% 30.36 in 10.0 mi North - - N/A   Clear
10:35 PM 26.6 °F 17.6 °F 69% 30.37 in 10.0 mi North - - N/A   Clear
10:55 PM 26.6 °F 19.4 °F 74% 30.37 in 10.0 mi North - - N/A   Clear
11:15 PM 26.6 °F 19.4 °F 74% 30.37 in 10.0 mi North - - N/A   Clear
11:35 PM 23.0 °F 17.6 °F 80% 30.37 in 10.0 mi North - - N/A   Clear
11:55 PM 19.4 °F 15.8 °F 86% 30.36 in 10.0 mi North - - N/A   Clear